Wetbulb
61.02 60.78 60.19 59.67 58.58 58.38 58.48 58.38 57.76 56.64 56.05 56.38 56.43 55.83 56.12 55.78 55.61 55.99 55.06 54.79 55.34 54.98 54.67 53.96 53.32 52.71 50.73 48.84 49.97 58.48 62.90 62.17 58.65 51.93 51.43 50.02 48.59 48.20 46.36 46.96 45.79 44.21 44.59 44.34 44.73 45.59 49.83
60.52 60.18 59.77 59.08 58.28 58.25 58.57 58.17 57.57 57.02 56.02 55.89 56.08 55.32 55.55 55.20 55.08 55.33 54.58 54.87 54.66 54.29 53.85 52.85 52.20 52.32 48.03 45.14 54.81 59.84 59.33 57.12 54.59 51.80 50.54 50.57 49.43 50.02 48.17 46.08 46.12 46.64 44.09 44.02 44.25 43.98 44.43
60.83 59.95 59.29 58.38 57.88 57.70 57.92 57.40 57.23 57.20 56.36 55.77 55.70 54.97 55.24 54.48 54.91 54.51 54.72 54.58 54.55 54.01 52.76 52.07 51.55 50.93 48.91 49.52 54.93 58.23 56.71 55.13 53.74 53.05 50.40 51.46 52.05 50.04 49.53 45.39 46.02 44.12 43.12 43.93 44.24 44.82 44.64
60.49 59.90 59.26 57.88 57.28 56.96 56.83 56.62 56.56 56.80 56.49 55.88 55.50 54.84 54.27 54.30 54.32 53.96 54.16 54.24 53.97 53.08 52.21 51.90 52.23 50.09 47.92 56.22 56.96 54.74 54.07 53.46 54.45 54.12 52.92 53.87 52.94 50.71 48.62 47.21 45.09 42.88 42.74 40.68 43.70 45.66 44.64
60.16 59.51 59.10 58.16 57.29 56.85 56.52 56.32 56.28 56.58 56.10 55.58 54.68 54.25 53.95 53.64 53.54 53.42 53.78 53.35 52.92 51.76 51.48 52.20 49.53 48.70 48.48 56.32 53.08 53.78 52.57 51.53 52.24 53.03 53.50 53.18 53.15 49.24 46.34 43.66 41.70 41.62 38.51 39.50 41.87 45.32 44.92
60.31 59.51 58.90 58.11 57.44 56.93 56.67 56.52 56.14 55.87 55.40 55.15 54.34 54.03 54.05 53.76 53.83 53.62 52.52 52.32 51.44 51.55 51.25 52.12 51.18 47.14 50.43 49.24 53.14 51.00 53.26 53.03 52.29 51.01 50.15 49.47 47.21 45.20 43.27 42.03 37.13 39.00 38.86 39.88 40.72 43.11 45.53
59.73 59.55 58.90 58.21 57.73 57.40 57.46 57.16 56.46 55.49 54.93 54.83 54.38 54.16 54.56 54.70 54.58 52.63 50.72 49.41 46.93 46.10 48.10 47.25 47.79 47.02 49.00 52.97 51.33 50.53 52.32 53.20 52.23 50.49 45.90 46.70 44.12 41.87 43.20 42.84 41.43 40.86 40.12 39.60 40.57 43.93 44.33
56.88 59.10 58.63 58.19 57.78 57.46 57.49 57.12 56.24 55.15 54.97 54.46 54.34 54.85 55.19 54.95 54.19 52.36 51.10 48.04 49.37 53.28 48.92 50.04 50.47 50.37 51.71 52.68 48.43 49.40 54.59 50.50 49.38 45.09 46.10 45.20 41.96 44.34 45.61 45.07 43.23 42.42 40.36 39.65 42.19 44.09 44.34
55.44 57.80 58.18 57.95 57.66 57.28 57.24 56.84 55.84 54.74 54.88 54.83 54.71 54.63 55.05 54.16 52.93 51.06 49.06 49.47 54.90 56.07 48.68 47.45 50.42 49.70 50.59 51.76 48.02 47.61 52.37 50.61 47.03 44.60 43.65 42.67 43.73 46.08 45.34 43.62 43.06 42.03 40.85 39.10 40.91 43.54 44.65
54.24 55.60 57.26 57.47 57.47 57.14 56.63 56.47 55.78 55.29 55.03 54.41 53.94 54.17 53.98 53.31 49.72 50.27 48.94 53.35 53.45 54.91 40.20 42.52 45.67 48.48 49.98 49.94 47.59 50.56 51.76 50.24 46.77 42.82 44.15 44.88 45.93 44.57 43.80 43.05 43.66 41.02 42.91 42.65 41.81 41.32 38.50
53.91 53.78 56.24 56.55 56.43 55.88 55.41 55.05 55.11 55.55 55.05 54.08 53.66 54.05 53.29 52.94 50.23 50.84 55.70 59.22 54.09 51.44 29.46 43.42 46.21 51.90 49.54 47.68 47.76 49.00 51.88 49.98 44.88 44.21 45.31 43.11 44.22 43.62 43.02 43.06 45.15 42.36 44.39 43.48 41.32 39.74 39.72
53.33 52.73 55.29 55.76 55.47 55.13 54.66 54.11 54.12 54.49 54.00 53.55 53.57 53.81 53.20 51.79 51.24 52.86 56.31 54.86 50.85 38.92 30.29 41.64 46.38 45.56 46.38 46.90 47.11 48.45 49.98 50.70 48.61 45.38 45.47 43.96 46.79 45.51 44.93 44.86 45.01 45.34 44.18 43.24 41.61 40.16 35.63
52.88 52.79 52.82 55.51 54.99 54.58 54.15 53.62 53.53 53.60 53.29 53.16 53.41 53.89 52.81 53.45 52.53 58.40 55.60 48.68 38.38 32.79 43.15 40.18 42.29 45.07 44.37 44.24 44.92 45.33 44.26 43.83 43.31 40.80 39.98 42.74 43.02 44.92 46.42 44.31 45.22 44.64 42.36 36.57 35.30 35.06 33.45
52.38 52.26 51.90 55.05 54.58 54.05 53.54 53.20 53.15 53.01 52.83 52.88 53.11 53.07 52.79 53.37 54.97 53.62 49.59 42.85 33.44 39.01 39.80 43.58 43.09 43.58 42.41 44.48 43.88 43.40 42.62 41.45 43.71 42.77 39.42 37.87 37.08 42.69 45.29 44.25 42.58 41.36 42.16 37.01 29.26 30.51 34.61
51.67 52.20 52.12 54.34 53.99 53.48 52.91 52.91 52.93 52.61 52.19 52.42 52.74 51.77 51.37 54.50 55.27 52.98 45.71 33.96 35.07 39.14 42.97 42.11 43.08 40.89 42.13 43.87 43.28 42.80 40.98 40.99 42.25 43.33 40.87 38.43 37.83 43.82 44.30 45.43 45.21 40.50 38.57 41.23 34.62 31.98 32.93
51.40 52.03 52.23 53.80 53.58 52.85 52.42 52.57 52.69 52.29 52.09 52.53 51.00 49.83 51.43 57.34 56.04 49.74 41.71 36.48 42.27 45.84 45.83 43.77 39.09 41.88 39.49 41.77 41.75 41.52 41.62 43.91 43.04 45.23 45.06 42.26 37.04 41.91 43.77 45.53 44.70 43.46 42.44 37.07 36.00 29.10 26.89
50.73 51.57 51.78 53.73 52.85 52.29 52.19 52.48 52.43 51.94 52.24 52.79 50.26 47.47 50.48 54.82 49.98 45.22 37.58 38.45 45.63 48.75 46.88 43.61 41.85 41.04 41.66 41.12 41.71 40.85 40.82 44.05 45.40 44.77 45.47 42.02 41.02 39.89 42.53 41.06 40.82 41.02 38.90 36.81 37.04 33.59 29.67
50.28 50.90 51.41 53.12 52.39 52.09 52.14 52.38 51.85 51.92 52.15 51.73 45.88 40.93 52.09 48.95 41.81 39.57 39.28 43.48 46.08 47.01 47.83 47.45 45.45 43.84 41.95 43.08 41.75 41.21 41.19 43.64 45.62 46.60 43.06 42.51 39.78 36.40 38.34 42.82 44.07 42.60 39.81 38.52 33.93 30.55 30.27
50.19 50.65 50.85 52.50 51.94 51.61 51.74 51.23 50.04 51.68 52.81 50.25 43.58 49.33 55.10 48.77 35.60 35.15 41.22 45.26 47.46 45.29 45.58 46.15 45.44 46.23 46.48 42.96 40.06 42.44 42.92 45.57 44.60 44.85 42.87 42.86 38.47 34.14 36.77 40.00 42.22 40.88 39.96 37.39 35.77 34.46 31.20
49.24 49.62 50.89 52.09 51.70 51.44 51.13 49.75 50.12 51.57 53.07 51.09 48.37 43.84 48.19 43.63 41.58 40.29 40.38 42.18 43.19 46.37 46.26 46.42 45.13 46.39 44.76 43.33 43.56 41.35 42.28 44.76 45.19 44.49 44.00 43.81 37.45 36.57 33.97 35.73 38.09 36.89 38.51 37.68 37.85 33.75 32.27
48.90 49.69 51.24 51.18 51.30 50.97 49.71 50.20 50.59 51.26 52.18 49.97 45.75 43.50 47.38 39.04 38.44 39.78 41.78 42.38 42.46 42.55 46.40 46.54 45.08 45.00 43.56 40.07 41.05 40.36 42.72 42.59 44.33 44.49 43.54 42.10 36.95 36.50 35.89 36.33 37.31 36.98 37.45 37.02 36.54 36.66 35.47
49.79 50.80 50.64 50.72 50.66 49.98 50.03 50.73 50.81 50.98 51.82 49.08 43.70 42.64 41.21 41.30 42.69 40.81 39.65 42.69 42.89 44.03 44.94 44.05 43.92 44.87 45.46 41.08 42.42 40.42 42.00 40.75 40.82 43.37 40.81 39.11 34.93 34.59 34.71 35.71 35.36 35.42 36.96 37.05 37.08 36.78 36.35
49.46 50.61 50.20 49.82 49.35 49.34 49.34 50.19 50.43 51.09 51.98 48.53 48.99 47.19 44.77 36.96 40.92 39.68 39.23 41.58 43.63 45.65 45.26 45.80 45.43 43.79 41.84 44.49 44.64 43.28 42.98 42.36 43.15 42.09 37.48 35.86 33.30 32.35 29.67 31.27 31.61 30.82 34.83 36.52 36.72 37.77 39.43
50.40 50.08 49.59 49.17 48.48 48.84 48.95 50.27 50.18 51.21 51.09 50.77 50.32 47.39 42.09 34.05 37.78 39.03 43.10 45.25 44.35 44.76 44.04 45.36 45.79 44.04 44.85 46.88 45.16 44.57 42.88 42.33 42.00 39.00 38.79 32.88 31.15 29.02 30.88 27.50 27.42 36.92 39.36 38.81 37.99 38.24 39.54
49.27 48.97 48.90 48.57 48.45 50.06 50.08 49.92 50.06 50.73 51.38 52.95 51.91 48.72 42.46 33.32 38.12 40.24 43.40 43.92 44.70 45.36 44.91 45.16 45.94 45.78 46.91 42.95 39.13 36.68 35.59 35.86 36.17 37.65 36.18 36.42 32.43 27.73 30.90 28.36 31.13 35.79 36.11 38.04 37.51 38.61 41.66
48.62 48.52 49.09 50.09 49.93 49.48 49.43 49.72 49.94 50.28 51.19 52.69 52.59 49.94 46.55 39.20 38.21 43.72 43.80 44.29 40.42 40.63 41.48 43.53 46.59 46.05 42.38 35.39 34.65 32.44 32.62 34.66 33.64 36.95 38.51 35.13 32.38 33.96 27.09 28.40 26.13 35.18 37.55 42.71 42.21 35.40 42.08
49.62 50.00 49.99 49.79 49.27 49.15 49.13 49.24 49.63 50.11 50.98 53.35 53.00 51.72 49.88 43.83 46.53 46.12 44.07 43.41 43.97 42.41 40.94 42.26 43.26 43.38 42.60 33.75 32.34 33.09 33.71 34.74 32.65 30.72 30.32 32.35 30.02 30.12 23.07 30.06 31.28 36.62 40.60 42.18 34.22 37.12 41.34
49.15 49.15 49.12 49.12 48.90 48.83 48.84 48.88 49.46 49.98 51.08 53.58 52.70 53.64 51.19 46.89 47.84 49.97 47.98 44.84 44.69 44.84 41.41 43.93 43.06 42.22 36.77 35.12 34.88 33.03 33.60 34.58 33.80 34.81 33.40 33.43 30.87 29.27 24.97 26.47 28.51 38.49 41.22 38.07 42.76 42.10 42.21
48.83 48.53 48.37 48.34 48.15 46.90 47.57 48.85 49.75 50.11 50.87 52.73 53.39 54.28 53.52 49.05 48.36 50.72 51.04 51.08 50.97 48.72 45.89 43.85 45.16 42.42 41.80 36.85 33.40 33.06 32.76 32.97 30.41 33.26 36.57 32.92 35.66 34.13 33.13 34.39 40.03 40.58 42.10 43.64 42.70 42.51 43.35
MSLP
1016.50 1016.76 1016.91 1016.99 1017.21 1017.56 1017.67 1018.11 1018.16 1018.26 1018.39 1018.54 1018.20 1018.26 1018.13 1017.86 1017.96 1017.60 1017.70 1017.61 1017.49 1017.65 1017.76 1017.96 1018.03 1018.05 1017.78 1016.55 1013.01 1010.56 1010.48 1011.02 1011.71 1011.77 1011.62 1011.98 1012.44 1012.57 1012.50 1012.53 1012.74 1012.73 1012.45 1012.24 1012.15 1012.36 1012.48
1016.01 1016.16 1016.48 1016.59 1016.72 1016.55 1017.23 1017.61 1017.62 1017.89 1018.04 1018.16 1017.87 1017.86 1017.65 1017.70 1017.72 1017.65 1017.50 1017.47 1017.31 1017.55 1017.77 1017.95 1018.07 1018.11 1017.51 1014.69 1010.34 1010.51 1010.87 1011.44 1011.47 1011.65 1011.75 1011.79 1011.81 1011.84 1012.07 1012.14 1012.36 1011.95 1012.26 1012.38 1012.62 1012.73 1012.91
1015.11 1015.58 1015.76 1016.02 1016.13 1016.32 1016.61 1017.00 1017.18 1017.49 1017.46 1017.68 1017.40 1017.56 1017.33 1017.55 1017.51 1017.52 1017.40 1017.24 1017.28 1017.59 1017.81 1018.01 1018.09 1017.82 1016.84 1012.44 1010.21 1010.43 1010.65 1010.88 1010.96 1010.89 1011.31 1011.51 1011.50 1011.79 1011.92 1012.21 1012.13 1012.09 1012.35 1012.48 1012.97 1013.08 1013.84
1014.37 1014.86 1015.26 1015.41 1015.64 1015.95 1015.96 1016.47 1016.68 1016.98 1017.17 1017.05 1017.09 1017.27 1016.97 1017.30 1017.40 1017.36 1017.22 1017.08 1017.33 1017.68 1017.84 1018.04 1017.93 1017.63 1014.69 1010.43 1010.08 1010.24 1010.22 1010.54 1010.78 1010.90 1010.99 1011.14 1011.65 1012.07 1011.97 1012.04 1012.11 1012.21 1012.61 1012.99 1013.54 1013.71 1014.37
1013.57 1013.99 1014.51 1014.78 1015.19 1015.52 1015.56 1015.94 1016.02 1016.61 1016.58 1016.57 1016.80 1016.93 1016.73 1016.87 1017.29 1017.23 1017.01 1017.14 1017.41 1017.69 1017.90 1017.90 1017.79 1017.22 1013.01 1009.73 1009.77 1009.20 1009.30 1009.76 1010.42 1010.97 1011.17 1011.20 1011.53 1012.00 1012.06 1012.17 1012.52 1012.75 1013.07 1013.47 1014.05 1014.56 1014.51
1012.84 1013.15 1013.66 1014.19 1014.49 1014.90 1015.15 1015.35 1015.50 1016.06 1016.05 1016.20 1016.44 1016.47 1016.38 1016.69 1016.93 1017.04 1017.01 1017.30 1017.46 1017.73 1017.83 1017.67 1017.36 1016.72 1012.26 1010.20 1009.40 1009.11 1008.81 1008.98 1009.65 1010.69 1011.39 1011.79 1011.76 1011.96 1012.25 1012.30 1012.51 1013.01 1013.55 1014.00 1014.66 1015.70 1015.75
1012.30 1012.17 1012.97 1013.37 1013.76 1014.23 1014.58 1014.63 1015.15 1015.45 1015.60 1015.74 1016.21 1016.10 1015.98 1016.47 1016.67 1016.98 1017.17 1017.56 1017.71 1017.54 1016.86 1014.97 1014.47 1013.49 1011.49 1010.04 1009.46 1008.95 1008.78 1008.86 1009.28 1009.99 1010.87 1011.52 1011.59 1011.79 1012.07 1012.24 1012.49 1012.92 1013.61 1014.51 1015.72 1016.53 1016.97
1011.57 1011.58 1012.07 1012.63 1013.10 1013.48 1013.95 1014.18 1014.44 1015.01 1015.10 1015.38 1015.66 1015.85 1015.69 1016.23 1016.49 1016.84 1016.97 1016.47 1013.99 1013.20 1013.71 1013.24 1013.08 1012.39 1011.16 1010.42 1009.80 1009.08 1008.77 1009.30 1009.75 1010.75 1011.25 1011.48 1011.91 1012.26 1012.33 1012.48 1012.81 1013.39 1014.25 1015.38 1016.45 1016.83 1017.09
1010.98 1010.99 1011.07 1011.93 1012.25 1012.75 1013.20 1013.53 1013.97 1014.45 1014.72 1015.03 1015.25 1015.40 1015.58 1016.11 1016.40 1016.88 1016.38 1014.77 1012.83 1012.63 1012.92 1012.26 1011.76 1011.07 1010.13 1010.27 1009.90 1009.43 1009.28 1009.69 1010.37 1011.05 1011.38 1011.90 1012.50 1012.40 1012.68 1013.30 1013.59 1013.93 1014.43 1015.49 1016.15 1017.03 1017.39
1010.17 1010.10 1010.30 1010.96 1011.35 1012.20 1012.54 1013.09 1013.42 1013.88 1014.37 1014.67 1014.70 1014.92 1015.66 1016.01 1016.60 1015.80 1015.05 1012.77 1012.83 1013.14 1012.88 1011.83 1010.76 1009.65 1009.66 1009.74 1010.00 1009.68 1009.62 1010.04 1010.91 1011.71 1012.18 1012.52 1012.75 1012.87 1013.18 1013.57 1013.65 1014.13 1014.68 1015.31 1016.06 1016.62 1017.16
1009.21 1009.60 1009.62 1010.11 1010.54 1011.25 1011.76 1012.36 1012.94 1013.45 1013.86 1014.33 1014.21 1014.63 1015.45 1015.25 1015.05 1014.74 1012.91 1012.54 1012.65 1012.79 1012.89 1011.43 1009.94 1008.83 1009.32 1009.97 1010.00 1010.11 1010.06 1010.17 1011.38 1012.04 1012.69 1013.17 1013.01 1013.18 1013.37 1013.88 1013.59 1014.73 1014.99 1015.50 1016.15 1016.56 1016.98
1008.26 1008.58 1009.08 1009.13 1009.84 1010.33 1011.14 1011.67 1012.28 1013.09 1013.44 1013.79 1014.00 1014.31 1015.35 1015.38 1015.00 1012.97 1012.56 1012.56 1012.77 1013.22 1012.53 1011.07 1009.84 1009.38 1009.83 1010.18 1010.62 1010.64 1010.60 1010.83 1011.66 1012.27 1012.54 1013.05 1013.14 1013.39 1013.60 1014.02 1013.72 1014.52 1015.30 1015.99 1016.62 1016.84 1017.24
1007.26 1007.48 1008.26 1008.38 1008.97 1009.59 1010.43 1010.95 1011.63 1012.51 1013.21 1013.27 1013.72 1013.94 1014.86 1014.04 1013.27 1012.50 1012.59 1012.99 1013.58 1013.14 1012.22 1011.31 1010.52 1010.19 1010.47 1011.10 1011.50 1011.52 1011.73 1012.05 1012.34 1012.88 1013.44 1013.62 1013.82 1013.65 1013.54 1014.00 1014.62 1014.68 1015.55 1016.58 1017.13 1017.43 1017.51
1006.36 1006.75 1007.25 1007.57 1008.09 1008.81 1009.67 1010.28 1011.05 1011.96 1012.68 1013.13 1013.34 1013.93 1014.17 1012.99 1012.34 1012.94 1013.02 1013.21 1013.64 1012.86 1012.10 1011.18 1010.81 1010.84 1011.18 1011.57 1012.14 1012.30 1012.57 1013.09 1013.04 1013.15 1014.12 1014.12 1014.21 1013.84 1013.76 1013.98 1014.40 1015.22 1015.70 1016.41 1017.22 1018.03 1017.83
1005.48 1005.95 1006.44 1006.74 1007.19 1008.00 1009.01 1009.60 1010.51 1011.48 1012.42 1012.96 1013.16 1014.28 1014.02 1011.70 1011.97 1013.23 1013.52 1014.03 1013.15 1012.55 1011.61 1011.22 1011.15 1011.36 1011.76 1011.93 1012.21 1012.81 1013.35 1013.67 1013.78 1013.62 1013.89 1014.37 1014.52 1014.25 1014.18 1014.20 1014.72 1015.57 1016.25 1016.97 1017.76 1019.07 1018.70
1004.61 1005.05 1005.48 1005.78 1006.39 1007.16 1008.28 1008.99 1010.10 1011.07 1011.98 1012.48 1012.38 1013.53 1012.31 1011.22 1011.61 1012.45 1013.11 1013.36 1012.75 1011.89 1011.16 1010.99 1011.21 1011.49 1012.05 1012.39 1012.85 1013.33 1013.76 1014.04 1014.07 1013.96 1013.92 1014.48 1014.83 1014.85 1014.73 1014.69 1015.19 1015.30 1016.50 1017.33 1018.02 1018.95 1018.99
1003.69 1004.05 1004.59 1004.83 1005.56 1006.44 1007.39 1008.51 1009.53 1010.56 1011.40 1012.00 1011.97 1012.80 1011.13 1011.02 1011.67 1012.23 1013.18 1012.95 1012.14 1011.12 1010.84 1010.75 1010.94 1011.59 1012.14 1012.67 1013.28 1013.74 1014.14 1014.34 1014.27 1014.34 1014.23 1014.69 1015.01 1015.63 1015.31 1015.26 1015.36 1016.15 1016.76 1017.87 1018.58 1019.32 1019.22
1002.69 1003.14 1003.43 1003.65 1004.78 1005.57 1006.85 1007.85 1009.18 1009.96 1011.17 1012.25 1011.63 1011.80 1010.83 1010.89 1011.97 1013.08 1013.06 1012.28 1011.54 1010.84 1010.41 1010.37 1010.51 1011.34 1012.13 1012.86 1013.49 1013.89 1014.12 1014.37 1014.57 1014.70 1014.95 1015.33 1015.75 1016.12 1016.07 1015.78 1015.81 1015.93 1016.63 1017.42 1018.57 1019.80 1020.04
1002.03 1002.59 1002.98 1002.94 1004.03 1005.03 1006.05 1007.39 1008.87 1009.38 1010.03 1010.52 1011.03 1011.18 1010.70 1010.57 1011.93 1012.97 1012.68 1011.94 1011.13 1010.79 1010.37 1010.30 1010.78 1011.24 1012.19 1013.05 1013.89 1014.24 1014.43 1014.79 1014.86 1015.07 1015.35 1015.53 1016.39 1016.89 1016.86 1016.65 1016.29 1016.47 1017.06 1017.73 1018.41 1019.10 1019.42
1001.17 1001.76 1002.11 1002.69 1003.54 1004.55 1005.54 1006.67 1008.14 1008.61 1009.01 1009.35 1010.26 1011.08 1011.49 1011.42 1011.87 1011.97 1012.32 1011.81 1011.20 1010.68 1010.48 1010.41 1011.08 1011.59 1012.50 1013.48 1013.98 1014.62 1014.97 1015.22 1015.35 1015.62 1015.81 1015.92 1016.95 1017.06 1017.14 1016.92 1016.89 1017.05 1017.21 1017.68 1017.86 1018.69 1018.79
1000.52 1000.70 1001.73 1002.00 1002.96 1004.30 1005.31 1005.86 1007.13 1008.15 1008.63 1009.60 1009.80 1010.46 1010.56 1011.87 1012.43 1012.09 1011.85 1011.60 1011.28 1010.92 1010.56 1010.52 1011.32 1011.82 1012.36 1013.74 1014.44 1014.95 1015.35 1015.77 1016.03 1016.28 1016.64 1016.91 1017.71 1018.19 1018.24 1018.06 1017.67 1017.31 1017.27 1017.47 1017.62 1017.62 1017.76
1000.01 1000.70 1000.86 1001.54 1002.95 1004.08 1004.77 1005.44 1006.61 1007.74 1008.70 1009.67 1009.55 1009.86 1010.86 1011.56 1011.60 1012.17 1012.03 1011.71 1011.37 1011.29 1011.19 1011.13 1011.57 1012.39 1012.76 1013.44 1013.89 1014.69 1015.17 1015.89 1016.07 1017.07 1017.54 1018.10 1018.95 1019.24 1019.33 1018.95 1018.43 1017.85 1017.37 1017.40 1017.41 1017.34 1017.14
999.22 1000.51 1000.83 1001.83 1003.07 1003.76 1004.58 1004.98 1006.20 1007.02 1007.70 1008.54 1008.78 1008.89 1009.22 1012.27 1012.35 1012.34 1012.22 1011.71 1011.42 1011.41 1011.76 1011.69 1012.02 1012.83 1013.61 1014.08 1014.35 1014.86 1015.37 1015.73 1016.26 1017.15 1018.31 1019.03 1019.58 1020.20 1020.15 1019.63 1018.93 1018.25 1016.47 1016.42 1016.50 1016.37 1016.17
999.63 1000.12 1000.90 1001.95 1002.97 1003.56 1003.97 1004.81 1005.60 1006.49 1006.58 1007.32 1007.53 1008.24 1009.80 1012.45 1012.50 1012.06 1011.81 1011.39 1011.46 1011.76 1012.08 1012.67 1012.90 1013.30 1014.63 1014.68 1015.04 1015.49 1016.17 1016.82 1017.32 1018.26 1018.66 1019.49 1020.10 1020.61 1020.90 1020.46 1019.02 1016.19 1015.85 1015.79 1015.78 1015.54 1015.58
999.29 1000.06 1001.02 1001.98 1002.63 1003.03 1003.69 1004.22 1005.34 1005.68 1006.51 1007.19 1007.10 1007.52 1009.28 1011.52 1011.65 1011.66 1011.75 1011.75 1011.99 1012.42 1012.94 1013.49 1013.99 1014.26 1014.66 1015.18 1016.19 1017.18 1017.78 1018.00 1018.75 1019.24 1019.39 1019.58 1020.27 1021.26 1021.47 1020.48 1018.38 1016.10 1015.82 1015.82 1015.61 1014.76 1014.67
999.36 1000.23 1000.98 1001.76 1002.17 1002.58 1003.25 1004.14 1004.76 1005.50 1006.33 1006.93 1007.01 1007.07 1008.33 1010.19 1010.98 1010.45 1011.35 1011.58 1012.14 1012.91 1013.75 1014.42 1014.86 1014.98 1015.39 1016.52 1017.23 1018.31 1018.69 1018.68 1019.16 1019.68 1019.98 1020.23 1020.30 1020.69 1021.71 1020.60 1018.59 1016.21 1015.42 1015.27 1015.29 1014.96 1014.40
999.37 1000.13 1001.05 1001.60 1001.91 1002.48 1002.97 1003.65 1004.43 1005.11 1005.98 1006.51 1007.02 1006.86 1007.74 1009.29 1009.70 1009.91 1010.26 1010.95 1011.61 1012.43 1013.54 1014.53 1015.18 1015.53 1015.88 1017.31 1018.44 1019.26 1019.22 1019.06 1019.31 1019.66 1020.25 1020.81 1021.21 1021.29 1021.35 1020.01 1017.98 1016.02 1015.69 1015.55 1015.60 1015.22 1014.78
999.87 1000.67 1001.16 1001.50 1001.91 1002.46 1002.85 1003.32 1003.87 1004.67 1005.56 1006.20 1007.09 1007.07 1007.24 1008.98 1009.70 1009.53 1009.58 1010.22 1010.98 1011.46 1012.72 1014.17 1015.04 1015.73 1016.64 1017.66 1018.83 1019.47 1019.56 1019.23 1019.38 1019.32 1019.54 1019.75 1020.37 1020.91 1021.05 1019.58 1017.56 1016.01 1016.05 1015.88 1015.01 1014.82 1014.95
1000.34 1000.86 1001.31 1001.83 1002.20 1002.50 1002.74 1002.94 1003.48 1004.25 1005.14 1005.63 1006.96 1007.43 1007.35 1008.48 1009.83 1009.77 1009.77 1009.61 1009.74 1009.85 1011.07 1013.18 1013.26 1014.33 1015.16 1017.01 1018.85 1019.50 1019.89 1019.99 1019.98 1019.69 1019.24 1019.26 1018.69 1018.85 1019.00 1017.26 1016.06 1015.79 1015.28 1014.92 1015.08 1015.11 1015.10
Wind_Speed
18 16 15 14 13 12 12 12 11 11 14 14 12 17 14 14 14 10 11 9 7 8 6 6 7 8 4 2 11 2 9 13 10 8 11 8 6 5 5 4 5 4 3 3 4 6 8
17 17 15 14 15 12 13 13 11 11 14 14 12 17 12 13 12 11 10 8 6 6 5 4 5 5 1 4 3 7 12 10 8 6 6 7 7 6 3 2 4 3 4 4 3 6 5
19 18 17 15 15 13 13 11 11 10 13 14 13 15 10 13 10 11 9 6 4 2 2 3 3 1 2 14 0 9 8 8 9 8 7 5 4 2 4 2 2 4 6 5 6 3 4
20 19 18 15 15 13 12 12 11 11 12 13 14 14 12 9 9 10 7 3 1 0 1 1 2 0 9 5 3 6 6 4 5 4 2 4 5 2 2 2 4 3 4 5 1 2 4
21 20 19 17 15 13 12 12 10 11 11 11 14 14 11 8 10 7 2 3 2 1 1 2 3 0 10 9 2 2 6 4 8 4 5 6 8 4 2 4 3 7 4 3 4 9 3
22 21 20 18 16 15 14 12 11 11 10 10 13 12 8 8 9 5 6 4 4 3 3 3 2 2 7 3 4 2 4 2 4 8 6 5 2 4 3 3 5 4 5 2 5 5 11
22 22 22 20 18 17 16 13 11 11 10 10 12 12 7 7 7 10 8 3 3 2 4 7 3 3 5 7 3 2 2 2 3 6 3 1 3 4 3 2 3 5 4 6 3 1 8
14 23 22 21 19 18 16 14 12 10 10 11 12 9 5 8 11 12 3 4 5 2 3 11 5 7 6 3 3 3 1 3 4 3 2 5 4 1 5 5 5 4 6 5 5 2 6
14 21 23 22 20 19 16 14 12 10 11 10 8 7 7 11 14 6 5 10 2 5 1 3 6 5 3 6 4 3 2 1 4 3 3 5 2 2 4 3 5 3 6 4 5 7 7
14 14 24 23 21 19 16 14 12 11 11 10 7 8 13 15 6 5 6 5 10 5 4 5 3 3 3 3 1 2 3 4 5 4 3 5 2 3 4 3 2 4 3 9 13 2 4
17 13 24 24 22 19 16 14 12 11 10 10 8 11 17 10 3 4 3 1 5 3 4 4 3 1 2 4 4 3 3 5 6 5 3 1 2 2 5 1 1 3 7 10 3 5 4
20 17 19 25 22 19 17 15 12 11 10 9 10 14 16 6 2 7 4 4 4 8 4 2 2 2 4 5 4 4 3 6 4 5 5 3 3 2 3 2 4 10 6 6 4 2 1
21 19 13 25 23 20 18 15 12 12 10 9 12 18 15 6 4 4 3 3 6 4 2 2 3 2 3 2 4 4 4 5 3 5 4 5 2 2 1 5 3 5 4 2 1 1 3
23 19 15 25 23 21 18 15 13 11 10 9 11 16 9 6 1 6 3 6 3 3 5 1 3 3 4 2 3 4 3 3 5 5 4 3 1 3 4 2 4 2 4 5 5 4 2
23 20 17 24 24 21 19 16 14 11 10 11 16 5 5 5 7 5 4 5 7 6 3 6 3 5 1 2 5 4 3 2 1 1 4 4 1 2 4 1 0 3 2 2 7 2 1
23 22 18 26 25 22 19 16 14 13 14 20 6 4 5 2 6 4 6 6 4 4 2 2 4 3 4 3 3 3 1 1 2 1 1 5 4 1 1 1 6 1 6 3 2 4 3
24 22 20 28 25 23 20 16 16 16 17 21 4 3 2 4 3 5 5 6 5 6 5 6 5 4 3 5 3 2 5 1 1 1 2 3 3 3 1 1 4 3 3 6 5 1 3
25 20 18 28 25 23 20 18 17 16 15 10 4 4 1 4 5 1 5 6 3 4 3 4 4 4 5 3 4 4 7 1 1 1 4 1 4 3 1 1 1 1 3 4 4 4 2
22 18 20 27 25 23 22 20 18 20 24 6 5 3 1 4 5 1 2 2 2 2 1 2 3 3 2 5 4 2 3 2 1 3 5 5 1 3 3 2 1 2 3 4 5 3 5
16 20 17 26 24 23 23 23 20 23 27 3 4 4 3 4 1 9 5 3 2 3 2 3 5 3 4 3 4 5 3 2 1 3 7 5 3 5 8 3 2 4 4 4 4 3 5
16 21 28 26 23 22 22 23 22 22 23 2 2 3 3 4 2 5 4 6 5 2 1 2 3 2 6 4 3 3 2 2 3 1 3 2 4 2 1 1 2 2 5 8 7 5 7
23 19 24 23 22 23 23 20 18 17 16 1 5 6 4 2 6 7 2 6 7 3 1 2 6 3 2 6 6 9 7 4 4 2 2 3 4 2 4 1 3 3 5 7 6 3 10
14 23 23 23 23 22 21 18 18 22 15 3 2 2 7 4 3 6 6 7 8 6 2 4 6 5 4 1 3 4 6 9 5 5 4 2 6 3 3 3 3 5 10 11 6 6 7
24 24 23 21 21 21 19 18 19 23 14 2 3 5 6 2 3 7 9 4 7 6 6 3 4 5 2 10 9 8 12 12 13 10 3 5 4 2 2 1 2 4 2 2 10 6 13
22 23 22 20 19 18 18 17 20 22 19 1 2 5 5 3 3 3 6 5 7 4 4 4 4 2 9 3 5 5 5 6 5 7 7 3 5 4 3 3 6 5 4 6 7 6 12
21 21 19 18 16 15 16 17 17 17 19 2 1 3 5 9 7 7 6 5 6 4 3 3 4 4 5 4 4 4 3 4 1 1 2 4 5 4 3 2 5 5 2 3 3 5 2
19 18 16 16 15 15 14 16 17 19 19 3 1 2 5 4 1 6 5 7 5 5 5 5 5 1 3 3 4 3 3 1 3 4 2 3 3 3 3 4 8 6 1 2 3 5 2
17 15 14 14 14 12 12 15 18 21 19 3 2 2 4 3 1 1 4 7 4 2 7 6 5 2 3 4 3 4 3 4 2 3 6 6 6 3 3 1 7 5 3 5 4 2 2
15 14 14 13 12 12 12 14 18 21 19 6 4 2 2 5 3 0 3 3 1 6 8 0 4 5 5 6 1 3 3 1 2 3 1 3 5 4 8 6 3 5 4 2 1 3 2
Wind_Direction
231 231 230 228 231 219 233 252 260 271 281 286 293 294 299 296 292 288 282 278 278 284 295 313 314 321 344 260 251 344 89 138 152 156 165 153 157 166 180 194 153 209 198 163 5 118 116
228 225 228 226 229 214 233 250 257 264 278 284 290 291 293 292 289 282 273 271 270 279 288 308 307 323 300 277 212 121 119 134 174 155 159 146 197 201 152 219 204 172 110 118 87 127 121
223 222 223 223 223 219 228 240 249 257 271 281 287 289 292 288 284 277 266 266 271 286 293 289 283 313 279 244 20 143 148 183 173 176 162 207 158 174 142 188 211 123 90 74 32 68 83
222 220 223 222 224 218 214 232 243 253 265 279 287 286 288 286 281 271 263 264 65 261 356 261 288 131 252 237 205 236 170 186 175 201 124 188 135 239 288 92 34 94 62 108 74 116 29
218 218 220 218 218 219 217 230 235 250 264 278 283 283 282 281 272 254 216 102 121 160 228 192 108 67 270 317 201 239 173 153 148 156 198 73 135 186 89 155 67 26 129 130 102 18 121
223 216 216 214 214 218 222 227 230 240 260 272 275 276 270 264 253 197 122 111 159 161 191 178 246 279 265 296 300 328 213 161 135 124 110 179 125 133 103 158 167 159 129 115 112 9 56
247 212 215 212 212 217 223 226 231 234 258 266 270 270 267 248 203 138 113 132 119 211 222 192 201 273 294 290 285 322 35 46 63 53 56 223 144 133 137 81 133 123 104 102 47 54 75
259 220 213 211 211 214 221 226 225 234 257 260 262 262 243 194 151 137 133 232 227 218 315 217 252 280 253 261 314 305 42 73 64 97 215 45 82 303 76 65 83 97 130 103 94 84 92
253 238 211 211 210 211 215 219 219 226 244 238 245 237 185 155 135 139 212 234 43 4 126 268 190 210 223 154 216 259 85 116 80 52 22 130 140 85 81 89 122 79 112 159 134 111 84
235 242 213 210 207 209 209 214 215 220 228 231 224 198 156 142 147 166 229 254 234 187 76 288 235 260 134 142 100 278 33 114 36 131 132 79 22 129 109 102 210 89 104 133 132 115 148
221 252 224 207 204 203 199 200 211 214 220 223 204 175 165 175 117 201 236 74 133 67 88 253 226 188 73 150 167 10 355 44 141 151 179 228 98 102 76 293 124 115 124 124 113 107 153
220 229 235 205 202 198 196 195 204 215 218 211 199 165 166 251 256 244 340 102 56 49 257 217 200 130 77 12 24 313 64 44 140 84 38 84 33 47 120 56 64 144 93 59 61 81 242
224 217 242 207 198 195 194 191 197 208 214 201 196 165 173 175 204 342 118 70 47 126 302 205 158 126 96 44 44 33 31 35 110 95 30 16 345 303 105 102 93 76 95 92 182 196 231
225 214 228 212 196 191 189 186 191 196 200 196 181 160 238 242 128 20 57 58 150 224 223 20 122 95 125 164 28 20 83 81 32 79 114 144 325 13 346 73 144 102 164 163 197 198 204
230 212 224 214 194 187 188 182 184 179 178 174 133 164 260 252 221 127 92 76 202 208 203 157 80 98 68 76 113 76 54 106 52 12 124 138 163 349 37 79 161 156 140 112 106 24 238
231 213 229 211 194 181 182 179 174 168 169 161 144 170 238 143 142 105 81 209 220 208 215 171 137 135 147 149 85 82 166 263 131 45 198 189 112 47 84 113 57 114 134 121 43 153 254
226 217 229 206 188 178 175 175 170 168 174 183 116 162 223 101 98 63 154 213 231 240 202 175 155 123 135 138 120 144 180 287 193 85 107 126 105 260 185 18 163 144 124 65 100 54 174
221 212 241 194 181 172 174 166 179 161 163 167 141 167 245 118 75 53 156 195 198 273 161 209 115 107 145 140 136 159 178 195 147 217 151 151 123 129 152 300 294 111 135 136 125 182 66
212 205 244 185 176 172 167 169 177 163 171 146 144 153 351 108 132 260 263 199 173 296 295 132 102 111 85 135 111 141 141 103 155 136 160 186 43 89 18 349 350 209 134 107 105 105 187
199 215 232 184 172 172 167 167 179 180 193 112 129 118 4 55 8 137 151 160 162 211 234 99 118 87 104 96 35 154 132 42 76 95 55 86 109 163 187 190 160 173 172 168 137 142 169
194 223 210 172 165 168 175 166 180 187 192 77 39 182 168 178 284 136 133 165 153 250 194 53 81 135 144 120 98 123 129 125 40 114 57 100 146 123 101 15 251 221 178 185 203 175 190
190 205 172 156 160 174 176 168 173 170 139 245 136 130 36 81 132 119 167 195 152 190 241 108 121 129 122 147 179 188 146 190 185 66 78 13 157 153 186 345 15 276 236 204 229 223 254
196 185 153 155 172 176 175 166 166 159 158 159 205 65 105 311 102 118 195 179 179 138 46 52 143 116 89 94 86 64 76 77 101 137 129 97 138 129 243 3 9 318 222 197 190 205 198
187 155 152 163 174 174 168 165 163 171 180 153 177 111 93 199 139 182 175 159 151 179 149 65 72 102 177 128 113 68 60 70 65 48 55 127 97 64 163 28 253 242 173 185 219 231 216
148 149 157 166 172 168 163 162 172 180 185 204 153 116 121 137 178 130 150 119 98 69 76 85 11 351 144 67 71 55 355 23 24 38 27 46 120 100 157 208 304 287 198 185 184 273 209
141 151 157 164 156 153 160 169 173 178 177 164 144 120 110 124 236 154 142 174 141 121 55 75 35 87 67 75 77 129 189 210 240 79 45 58 64 108 135 186 232 247 261 195 166 283 218
139 139 146 146 142 148 156 164 169 171 174 136 144 136 96 116 221 141 160 162 133 102 101 120 161 193 54 78 87 145 207 221 195 173 199 39 14 166 149 231 283 252 294 171 108 255 183
126 131 133 129 128 137 149 164 167 168 170 144 86 38 112 102 305 218 161 135 115 126 136 172 86 322 55 78 132 182 167 207 151 162 181 178 155 184 109 184 272 181 126 171 226 278 235
122 123 118 116 120 125 139 155 162 162 172 176 106 20 34 81 140 66 91 62 270 167 127 241 142 156 166 92 127 115 143 117 127 233 344 241 197 177 195 219 238 222 236 227 194 269 252